contact:dominique.lefevre@mio.osupytheas.fr, maurice.libes@osupytheas.fr, didier.mallarino@osupytheas.fr
Project:EMSO http://www.emso-fr.org/EMSO-France
Depth: 2436.0 m
Title:EMSO Ligure Ouest : Data MII capteur AQUADOPP
Date,Latitude,Longitude,X_East,Y_North,Z_Up,Amplitude_X,Amplitude_Y,Amplitude_Z,Batterie,SoundSpeed,Heading,Pitch,Roll,Pressure,TIS,Speed,Direction
, degrees North, degrees East, m.s-1, m.s-1,m.s-1, 1, 1, 1, Volt, m.s-1, degree, degree, degree, dbar, degree_C, m.s-1, degree
2022-02-08T00:04:03,42.805,6.029,0.001,0.002,-0.023,105.0,105.0,103.0,13.4,1505.2,326.4,-0.7,1.8,2470.505,13.28,0.002,26.6
2022-02-08T00:07:03,42.805,6.029,0.038,-0.031,0.015,106.0,104.0,103.0,13.4,1505.2,327.3,-0.7,1.8,2470.453,13.28,0.049,129.2
2022-02-08T00:10:03,42.805,6.029,0.028,-0.009,0.009,104.0,104.0,103.0,13.4,1505.2,328.8,-0.8,1.8,2470.492,13.28,0.029,107.8
2022-02-08T00:13:03,42.805,6.029,0.018,-0.001,-0.006,105.0,104.0,103.0,13.4,1505.2,324.1,-0.7,1.8,2470.459,13.28,0.018,93.2
2022-02-08T00:16:03,42.805,6.029,0.016,-0.03,-0.007,105.0,103.0,102.0,13.3,1505.2,329.7,-0.8,1.8,2470.525,13.28,0.034,151.9
2022-02-08T00:19:03,42.805,6.029,0.024,-0.004,0.006,105.0,105.0,102.0,13.4,1505.2,329.8,-0.8,1.8,2470.521,13.28,0.024,99.5
2022-02-08T00:22:03,42.805,6.029,0.021,-0.003,-0.026,106.0,103.0,103.0,13.4,1505.2,328.0,-0.7,1.8,2470.499,13.28,0.021,98.1
2022-02-08T00:25:03,42.805,6.029,0.012,-0.006,0.002,105.0,104.0,103.0,13.4,1505.2,325.9,-0.8,1.8,2470.52,13.28,0.013,116.6
2022-02-08T00:28:03,42.805,6.029,0.028,0.0,0.001,102.0,103.0,103.0,13.4,1505.2,323.5,-0.8,1.8,2470.54,13.28,0.028,90.0
2022-02-08T00:31:03,42.805,6.029,0.005,0.006,0.01,104.0,106.0,102.0,13.4,1505.2,330.7,-0.8,1.8,2470.554,13.28,0.007,39.8
2022-02-08T00:34:03,42.805,6.029,0.023,0.0,0.011,103.0,105.0,103.0,13.4,1505.2,326.8,-0.8,1.8,2470.545,13.28,0.023,90.0
2022-02-08T00:37:03,42.805,6.029,0.022,-0.004,0.0,104.0,105.0,103.0,13.4,1505.2,331.1,-0.8,1.8,2470.501,13.28,0.022,100.3
2022-02-08T00:40:03,42.805,6.029,0.008,-0.012,-0.005,105.0,104.0,103.0,13.4,1505.2,330.7,-0.8,1.8,2470.547,13.28,0.014,146.3
2022-02-08T00:43:03,42.805,6.029,0.001,-0.006,0.015,105.0,105.0,103.0,13.4,1505.2,330.0,-0.7,1.8,2470.54,13.28,0.006,170.5
2022-02-08T00:46:03,42.805,6.029,0.013,-0.004,-0.011,105.0,105.0,102.0,13.4,1505.2,327.2,-0.8,1.8,2470.549,13.28,0.013,107.1
2022-02-08T00:49:03,42.805,6.029,0.013,-0.004,-0.003,104.0,105.0,103.0,13.4,1505.2,327.5,-0.8,1.9,2470.597,13.28,0.013,107.1
2022-02-08T00:52:03,42.805,6.029,0.012,-0.015,-0.003,106.0,104.0,103.0,13.4,1505.2,324.7,-0.8,1.8,2470.866,13.28,0.019,141.3
2022-02-08T00:55:03,42.805,6.029,0.0,-0.018,-0.003,105.0,106.0,103.0,13.3,1505.2,325.1,-0.7,1.8,2471.194,13.28,0.018,180.0
2022-02-08T00:58:03,42.805,6.029,0.011,-0.006,-0.009,107.0,105.0,103.0,13.4,1505.2,326.0,-0.8,1.8,2471.282,13.28,0.012,118.6
2022-02-08T01:04:03,42.805,6.029,0.007,-0.005,-0.024,106.0,106.0,105.0,13.4,1505.2,327.2,-0.7,1.8,2470.763,13.28,0.008,125.5
2022-02-08T01:07:03,42.805,6.029,-0.019,0.009,-0.037,105.0,106.0,105.0,13.4,1505.2,329.8,-0.7,1.8,2470.384,13.28,0.021,295.3
2022-02-08T01:10:03,42.805,6.029,-0.024,-0.012,-0.029,105.0,102.0,103.0,13.4,1505.2,324.4,-0.7,1.8,2470.377,13.29,0.026,243.4
2022-02-08T01:13:03,42.805,6.029,-0.001,-0.018,-0.001,104.0,105.0,103.0,13.4,1505.2,326.3,-0.7,1.8,2470.353,13.29,0.018,183.2
2022-02-08T01:16:03,42.805,6.029,0.011,-0.009,-0.025,106.0,106.0,103.0,13.3,1505.2,325.8,-0.8,1.8,2470.35,13.29,0.014,129.3
2022-02-08T01:19:03,42.805,6.029,-0.007,0.008,-0.023,106.0,102.0,103.0,13.4,1505.2,326.5,-0.7,1.8,2470.355,13.29,0.01,318.8
2022-02-08T01:22:03,42.805,6.029,-0.003,0.004,0.006,106.0,105.0,102.0,13.4,1505.2,327.5,-0.8,1.8,2470.396,13.29,0.005,323.1
2022-02-08T01:25:03,42.805,6.029,-0.006,0.007,-0.016,106.0,105.0,104.0,13.4,1505.2,328.0,-0.7,1.8,2470.34,13.29,0.009,319.4
2022-02-08T01:28:03,42.805,6.029,-0.022,0.008,-0.01,105.0,104.0,103.0,13.3,1505.2,326.9,-0.8,1.8,2470.411,13.29,0.023,290.0
2022-02-08T01:31:03,42.805,6.029,-0.008,0.01,-0.017,108.0,105.0,103.0,13.4,1505.2,327.1,-0.7,1.9,2470.424,13.29,0.012,321.3
2022-02-08T01:34:03,42.805,6.029,-0.031,0.008,-0.02,106.0,105.0,103.0,13.4,1505.2,326.3,-0.8,1.8,2470.419,13.29,0.032,284.5
2022-02-08T01:37:03,42.805,6.029,-0.016,-0.007,-0.007,106.0,106.0,102.0,13.4,1505.2,329.3,-0.8,1.9,2470.425,13.29,0.017,246.4
2022-02-08T01:40:03,42.805,6.029,-0.002,-0.011,-0.003,106.0,107.0,103.0,13.4,1505.2,326.9,-0.8,1.8,2470.435,13.29,0.011,190.3
2022-02-08T01:43:03,42.805,6.029,-0.007,0.008,-0.003,104.0,104.0,104.0,13.4,1505.2,324.9,-0.7,1.8,2470.403,13.29,0.01,318.8
2022-02-08T01:46:03,42.805,6.029,0.001,0.007,0.019,105.0,105.0,102.0,13.3,1505.2,325.2,-0.8,1.8,2470.43,13.29,0.007,8.1
2022-02-08T01:49:03,42.805,6.029,-0.003,0.014,-0.013,105.0,105.0,102.0,13.4,1505.2,325.1,-0.8,1.9,2470.406,13.29,0.014,347.9
2022-02-08T01:52:03,42.805,6.029,-0.008,0.0,0.001,105.0,105.0,103.0,13.4,1505.2,323.6,-0.8,1.8,2470.445,13.29,0.008,270.0
2022-02-08T01:55:03,42.805,6.029,-0.001,0.011,-0.017,105.0,105.0,104.0,13.3,1505.2,325.0,-0.8,1.9,2470.422,13.29,0.011,354.8
2022-02-08T01:58:03,42.805,6.029,-0.025,0.001,-0.059,106.0,105.0,103.0,13.3,1505.2,325.2,-0.7,1.8,2470.455,13.29,0.025,272.3
2022-02-08T02:04:03,42.805,6.029,0.0,0.005,0.002,105.0,105.0,103.0,13.4,1505.2,328.4,-0.8,1.8,2470.51,13.29,0.005,0.0
2022-02-08T02:07:03,42.805,6.029,-0.01,0.001,-0.003,105.0,104.0,103.0,13.4,1505.2,328.8,-0.7,1.8,2470.488,13.29,0.01,275.7
2022-02-08T02:10:03,42.805,6.029,-0.004,0.029,-0.03,106.0,105.0,102.0,13.4,1505.2,326.4,-0.8,1.8,2470.481,13.29,0.029,352.2
2022-02-08T02:13:03,42.805,6.029,-0.002,-0.001,-0.019,106.0,104.0,105.0,13.3,1505.2,326.1,-0.7,1.8,2470.49,13.29,0.002,243.4
2022-02-08T02:16:03,42.805,6.029,-0.014,0.031,-0.036,104.0,106.0,105.0,13.4,1505.2,323.6,-0.8,1.8,2470.521,13.29,0.034,335.7
2022-02-08T02:19:03,42.805,6.029,-0.009,0.006,-0.023,105.0,105.0,104.0,13.3,1505.2,324.0,-0.7,1.8,2470.495,13.29,0.01,303.7
2022-02-08T02:22:03,42.805,6.029,0.001,0.019,0.011,106.0,105.0,104.0,13.3,1505.2,325.5,-0.8,1.8,2470.508,13.29,0.019,3.0
2022-02-08T02:25:03,42.805,6.029,0.001,0.004,-0.006,105.0,105.0,103.0,13.3,1505.2,325.8,-0.7,1.9,2470.548,13.29,0.004,14.0
2022-02-08T02:28:03,42.805,6.029,-0.024,0.018,-0.001,105.0,105.0,104.0,13.3,1505.2,331.5,-0.7,1.8,2470.496,13.29,0.03,306.9
2022-02-08T02:31:03,42.805,6.029,-0.014,0.023,0.006,104.0,105.0,104.0,13.3,1505.2,325.6,-0.8,1.8,2470.526,13.29,0.026,328.7
2022-02-08T02:34:03,42.805,6.029,0.008,0.015,-0.019,104.0,104.0,103.0,13.4,1505.2,331.6,-0.8,1.8,2470.511,13.29,0.017,28.1
2022-02-08T02:37:03,42.805,6.029,-0.01,-0.003,-0.005,104.0,104.0,103.0,13.4,1505.2,327.0,-0.8,1.8,2470.54,13.29,0.01,253.3
2022-02-08T02:40:03,42.805,6.029,-0.01,0.006,-0.005,105.0,104.0,102.0,13.3,1505.2,329.8,-0.8,1.8,2470.549,13.29,0.011,301.0
2022-02-08T02:43:03,42.805,6.029,-0.029,0.01,-0.003,104.0,104.0,102.0,13.4,1505.2,325.0,-0.8,1.8,2470.562,13.29,0.03,289.0
2022-02-08T02:46:03,42.805,6.029,-0.036,0.023,-0.016,104.0,104.0,102.0,13.3,1505.2,328.0,-0.8,1.8,2470.538,13.29,0.042,302.6
2022-02-08T02:49:03,42.805,6.029,-0.008,0.015,-0.016,104.0,104.0,104.0,13.3,1505.2,325.9,-0.8,1.8,2470.549,13.29,0.017,331.9
2022-02-08T02:52:03,42.805,6.029,-0.013,0.028,0.02,104.0,104.0,103.0,13.4,1505.2,328.8,-0.8,1.8,2470.549,13.29,0.03,335.1
2022-02-08T02:55:03,42.805,6.029,-0.021,0.006,-0.012,104.0,105.0,103.0,13.3,1505.2,326.5,-0.8,1.8,2470.541,13.29,0.021,285.9
2022-02-08T02:58:03,42.805,6.029,-0.033,0.025,0.001,104.0,105.0,103.0,13.3,1505.2,327.0,-0.8,1.8,2470.527,13.29,0.041,307.1
2022-02-08T03:04:03,42.805,6.029,-0.018,0.012,-0.02,104.0,105.0,103.0,13.4,1505.2,325.0,-0.8,1.8,2470.575,13.29,0.021,303.7
2022-02-08T03:07:03,42.805,6.029,-0.013,0.023,-0.021,105.0,104.0,103.0,13.4,1505.2,324.0,-0.7,1.8,2470.602,13.29,0.026,330.5
2022-02-08T03:10:03,42.805,6.029,-0.026,0.017,-0.015,104.0,105.0,103.0,13.4,1505.2,331.8,-0.8,1.8,2470.596,13.29,0.031,303.2
2022-02-08T03:13:03,42.805,6.029,-0.03,0.013,-0.047,106.0,105.0,104.0,13.4,1505.2,330.6,-0.8,1.8,2470.579,13.29,0.032,293.4
2022-02-08T03:16:03,42.805,6.029,-0.005,0.017,0.0,106.0,104.0,104.0,13.4,1505.2,326.3,-0.8,1.8,2470.564,13.29,0.017,343.6
2022-02-08T03:19:03,42.805,6.029,-0.014,0.03,0.008,106.0,104.0,103.0,13.4,1505.2,331.3,-0.8,1.8,2470.57,13.29,0.033,335.0
2022-02-08T03:22:03,42.805,6.029,-0.007,0.034,0.009,105.0,104.0,104.0,13.4,1505.2,323.7,-0.8,1.8,2470.563,13.29,0.034,348.4
2022-02-08T03:25:03,42.805,6.029,-0.004,0.02,-0.017,105.0,105.0,103.0,13.4,1505.2,325.4,-0.8,1.8,2470.602,13.29,0.02,348.7
2022-02-08T03:28:03,42.805,6.029,-0.004,0.007,-0.027,105.0,104.0,103.0,13.3,1505.2,324.5,-0.8,1.8,2470.574,13.29,0.008,330.3
2022-02-08T03:31:03,42.805,6.029,-0.013,0.005,-0.02,105.0,104.0,103.0,13.4,1505.2,327.3,-0.7,1.8,2470.608,13.29,0.013,291.0
2022-02-08T03:34:03,42.805,6.029,0.005,0.012,-0.01,106.0,105.0,104.0,13.3,1505.2,330.8,-0.7,1.8,2470.596,13.29,0.013,22.6
2022-02-08T03:37:03,42.805,6.029,-0.011,0.008,0.0,105.0,105.0,102.0,13.4,1505.2,325.8,-0.8,1.8,2470.64,13.29,0.013,306.0
2022-02-08T03:40:03,42.805,6.029,-0.001,0.009,-0.029,105.0,104.0,104.0,13.4,1505.2,324.2,-0.8,1.8,2470.646,13.29,0.009,353.7
2022-02-08T03:43:03,42.805,6.029,-0.003,0.014,-0.026,105.0,106.0,103.0,13.3,1505.2,331.1,-0.8,1.8,2470.658,13.29,0.014,347.9
2022-02-08T03:46:03,42.805,6.029,-0.005,0.013,0.025,106.0,104.0,103.0,13.4,1505.2,327.8,-0.7,1.8,2470.62,13.29,0.013,339.0
2022-02-08T03:49:03,42.805,6.029,-0.008,0.011,-0.007,105.0,106.0,103.0,13.4,1505.2,323.7,-0.7,1.8,2470.625,13.29,0.013,324.0
2022-02-08T03:52:03,42.805,6.029,-0.012,0.025,-0.017,105.0,105.0,104.0,13.3,1505.2,324.9,-0.8,1.8,2470.639,13.29,0.027,334.4
2022-02-08T03:55:03,42.805,6.029,-0.021,0.039,0.01,106.0,103.0,103.0,13.4,1505.2,327.7,-0.7,1.8,2470.624,13.29,0.044,331.7
2022-02-08T03:58:03,42.805,6.029,-0.017,0.014,0.026,104.0,105.0,103.0,13.4,1505.2,328.6,-0.8,1.8,2470.612,13.29,0.022,309.5
2022-02-08T04:04:03,42.805,6.029,0.0,0.026,0.011,106.0,105.0,104.0,13.4,1505.2,324.6,-0.7,1.8,2470.517,13.28,0.026,0.0
2022-02-08T04:07:03,42.805,6.029,-0.001,0.025,0.003,105.0,106.0,103.0,13.4,1505.2,324.7,-0.7,1.8,2470.579,13.28,0.025,357.7
2022-02-08T04:10:03,42.805,6.029,-0.016,0.008,-0.027,107.0,103.0,104.0,13.4,1505.2,323.7,-0.8,1.8,2470.544,13.29,0.017,296.6
2022-02-08T04:13:03,42.805,6.029,-0.012,0.019,-0.003,106.0,105.0,103.0,13.4,1505.2,326.3,-0.8,1.8,2470.584,13.29,0.022,327.7
2022-02-08T04:16:03,42.805,6.029,-0.001,0.015,-0.018,106.0,105.0,103.0,13.4,1505.2,330.4,-0.8,1.8,2470.554,13.29,0.015,356.2
2022-02-08T04:19:03,42.805,6.029,-0.011,0.007,-0.003,106.0,105.0,103.0,13.4,1505.2,325.9,-0.8,1.8,2470.525,13.29,0.013,302.5
2022-02-08T04:22:03,42.805,6.029,-0.012,0.027,-0.021,104.0,107.0,104.0,13.4,1505.2,329.5,-0.7,1.8,2470.566,13.29,0.029,336.0
2022-02-08T04:25:03,42.805,6.029,0.005,0.002,-0.007,107.0,104.0,103.0,13.3,1505.2,323.3,-0.8,1.8,2470.557,13.29,0.005,68.2
2022-02-08T04:28:03,42.805,6.029,-0.005,0.011,-0.019,106.0,104.0,104.0,13.4,1505.2,325.1,-0.7,1.8,2470.584,13.29,0.012,335.6
2022-02-08T04:31:03,42.805,6.029,-0.001,0.034,-0.004,106.0,106.0,103.0,13.4,1505.2,326.5,-0.7,1.8,2470.582,13.29,0.034,358.3
2022-02-08T04:34:03,42.805,6.029,-0.032,0.003,-0.016,105.0,106.0,104.0,13.3,1505.2,327.1,-0.8,1.8,2470.589,13.29,0.032,275.4
2022-02-08T04:37:03,42.805,6.029,0.008,0.023,0.002,105.0,105.0,103.0,13.4,1505.2,329.1,-0.7,1.8,2470.587,13.29,0.024,19.2
2022-02-08T04:40:03,42.805,6.029,-0.009,0.003,-0.013,107.0,105.0,103.0,13.4,1505.2,324.3,-0.7,1.8,2470.541,13.29,0.009,288.4
2022-02-08T04:43:03,42.805,6.029,-0.018,0.001,-0.024,106.0,104.0,103.0,13.3,1505.2,323.3,-0.8,1.9,2470.559,13.29,0.018,273.2
2022-02-08T04:46:03,42.805,6.029,-0.019,0.018,-0.011,108.0,106.0,104.0,13.4,1505.2,328.4,-0.7,1.8,2470.579,13.29,0.026,313.5
2022-02-08T04:49:03,42.805,6.029,-0.019,0.019,0.018,106.0,106.0,104.0,13.4,1505.2,330.1,-0.7,1.8,2470.575,13.29,0.026,315.0
2022-02-08T04:52:03,42.805,6.029,-0.01,0.035,0.007,104.0,106.0,104.0,13.4,1505.2,329.1,-0.8,1.8,2470.57,13.29,0.036,344.1
2022-02-08T04:55:03,42.805,6.029,-0.013,0.03,-0.01,106.0,105.0,104.0,13.4,1505.2,323.9,-0.7,1.8,2470.554,13.29,0.032,336.6
2022-02-08T04:58:03,42.805,6.029,-0.015,0.03,-0.021,106.0,105.0,103.0,13.4,1505.2,328.6,-0.7,1.8,2470.57,13.29,0.033,333.4
2022-02-08T05:04:03,42.805,6.029,-0.013,0.009,0.007,107.0,108.0,105.0,13.4,1505.2,328.0,-0.8,1.8,2470.636,13.28,0.015,304.7
2022-02-08T05:07:03,42.805,6.029,-0.016,0.015,0.003,108.0,105.0,103.0,13.4,1505.2,325.8,-0.7,1.8,2470.579,13.28,0.021,313.1
2022-02-08T05:10:03,42.805,6.029,-0.015,0.021,-0.001,108.0,106.0,103.0,13.4,1505.2,329.4,-0.7,1.8,2470.616,13.29,0.025,324.5
2022-02-08T05:13:03,42.805,6.029,-0.009,0.02,-0.001,105.0,105.0,104.0,13.4,1505.2,327.8,-0.7,1.8,2470.616,13.29,0.021,335.8
2022-02-08T05:16:03,42.805,6.029,-0.015,0.031,0.006,107.0,107.0,103.0,13.4,1505.2,326.4,-0.7,1.8,2470.572,13.29,0.034,334.2
2022-02-08T05:19:03,42.805,6.029,-0.009,0.019,0.008,105.0,105.0,103.0,13.4,1505.2,323.5,-0.8,1.8,2470.593,13.29,0.021,334.7
2022-02-08T05:22:03,42.805,6.029,-0.012,0.017,0.008,106.0,105.0,104.0,13.4,1505.2,329.5,-0.7,1.8,2470.604,13.29,0.02,324.8
2022-02-08T05:25:03,42.805,6.029,-0.016,0.041,0.001,105.0,104.0,105.0,13.4,1505.2,325.6,-0.8,1.8,2470.607,13.29,0.044,338.7
2022-02-08T05:28:03,42.805,6.029,-0.016,0.019,-0.009,106.0,105.0,105.0,13.4,1505.2,328.0,-0.8,1.8,2470.585,13.29,0.024,319.9
2022-02-08T05:31:03,42.805,6.029,-0.005,0.027,0.033,107.0,105.0,103.0,13.4,1505.2,329.3,-0.8,1.8,2470.62,13.29,0.027,349.5
2022-02-08T05:34:03,42.805,6.029,-0.004,0.018,-0.001,105.0,105.0,104.0,13.4,1505.2,327.8,-0.8,1.8,2470.58,13.29,0.018,347.5
2022-02-08T05:37:03,42.805,6.029,0.002,0.019,-0.008,106.0,105.0,103.0,13.4,1505.2,323.9,-0.7,1.8,2470.59,13.29,0.019,6.0
2022-02-08T05:40:03,42.805,6.029,-0.027,0.009,0.002,107.0,105.0,103.0,13.4,1505.2,324.4,-0.7,1.8,2470.566,13.29,0.028,288.4
2022-02-08T05:43:03,42.805,6.029,-0.016,0.036,0.004,105.0,105.0,103.0,13.4,1505.2,323.6,-0.7,1.8,2470.595,13.29,0.039,336.0
2022-02-08T05:46:03,42.805,6.029,-0.018,0.009,-0.025,104.0,106.0,103.0,13.4,1505.2,329.4,-0.8,1.8,2470.597,13.29,0.02,296.6
2022-02-08T05:49:03,42.805,6.029,-0.017,0.013,-0.014,105.0,105.0,103.0,13.3,1505.2,331.5,-0.8,1.8,2470.571,13.29,0.021,307.4
2022-02-08T05:52:03,42.805,6.029,-0.016,0.006,0.027,104.0,105.0,103.0,13.4,1505.2,328.5,-0.7,1.8,2470.575,13.29,0.017,290.6
2022-02-08T05:55:03,42.805,6.029,-0.009,0.031,0.012,105.0,104.0,103.0,13.4,1505.2,327.1,-0.7,1.8,2470.571,13.29,0.032,343.8
2022-02-08T05:58:03,42.805,6.029,-0.019,0.037,0.01,106.0,106.0,103.0,13.4,1505.2,325.8,-0.7,1.8,2470.632,13.29,0.041,332.8
2022-02-08T06:04:03,42.805,6.029,-0.009,0.035,0.013,105.0,105.0,104.0,13.4,1505.2,328.7,-0.8,1.8,2470.64,13.28,0.036,345.6
2022-02-08T06:07:03,42.805,6.029,-0.018,0.012,0.007,106.0,105.0,103.0,13.4,1505.2,324.7,-0.7,1.8,2470.605,13.28,0.021,303.7
2022-02-08T06:10:03,42.805,6.029,-0.017,0.02,-0.002,106.0,105.0,103.0,13.3,1505.2,326.4,-0.7,1.8,2470.603,13.29,0.026,319.6
2022-02-08T06:13:03,42.805,6.029,0.013,0.036,0.008,105.0,105.0,103.0,13.4,1505.2,327.9,-0.8,1.8,2470.589,13.29,0.038,19.9
2022-02-08T06:16:03,42.805,6.029,-0.011,0.025,0.0,105.0,104.0,104.0,13.4,1505.2,326.0,-0.7,1.9,2470.565,13.29,0.027,336.3
2022-02-08T06:19:03,42.805,6.029,-0.005,0.027,0.003,106.0,105.0,104.0,13.4,1505.2,326.1,-0.8,1.9,2470.581,13.29,0.027,349.5
2022-02-08T06:22:03,42.805,6.029,-0.004,0.021,-0.001,106.0,104.0,103.0,13.4,1505.2,327.9,-0.8,1.8,2470.578,13.29,0.021,349.2
2022-02-08T06:25:03,42.805,6.029,-0.006,0.017,-0.01,105.0,103.0,103.0,13.3,1505.2,327.5,-0.7,1.8,2470.554,13.29,0.018,340.6
2022-02-08T06:28:03,42.805,6.029,-0.014,0.009,-0.011,106.0,106.0,103.0,13.4,1505.2,331.5,-0.8,1.8,2470.561,13.29,0.016,302.7
2022-02-08T06:31:03,42.805,6.029,0.003,0.012,0.0,107.0,105.0,103.0,13.3,1505.2,328.6,-0.8,1.8,2470.544,13.29,0.012,14.0
2022-02-08T06:34:03,42.805,6.029,-0.007,0.034,-0.01,106.0,105.0,104.0,13.4,1505.2,327.5,-0.7,1.8,2470.572,13.29,0.034,348.4
2022-02-08T06:37:03,42.805,6.029,0.0,0.006,0.017,104.0,106.0,104.0,13.4,1505.2,329.8,-0.7,1.8,2470.573,13.29,0.006,0.0
2022-02-08T06:40:03,42.805,6.029,-0.008,0.017,0.011,105.0,105.0,104.0,13.4,1505.2,330.7,-0.7,1.8,2470.59,13.29,0.018,334.8
2022-02-08T06:43:03,42.805,6.029,-0.017,0.012,-0.014,106.0,106.0,103.0,13.3,1505.2,328.6,-0.7,1.9,2470.558,13.29,0.02,305.2
2022-02-08T06:46:03,42.805,6.029,-0.009,0.03,-0.013,104.0,104.0,103.0,13.3,1505.2,329.4,-0.8,1.8,2470.554,13.29,0.031,343.3
2022-02-08T06:49:03,42.805,6.029,-0.001,0.029,-0.011,106.0,106.0,104.0,13.4,1505.2,325.2,-0.8,1.8,2470.561,13.29,0.029,358.0
2022-02-08T06:52:03,42.805,6.029,-0.029,0.013,-0.013,106.0,106.0,103.0,13.4,1505.2,327.6,-0.7,1.8,2470.586,13.29,0.031,294.1
2022-02-08T06:55:03,42.805,6.029,-0.005,0.026,-0.002,106.0,105.0,105.0,13.4,1505.2,324.1,-0.7,1.8,2470.574,13.29,0.026,349.1
2022-02-08T06:58:03,42.805,6.029,-0.004,0.023,0.027,105.0,106.0,103.0,13.3,1505.2,329.1,-0.8,1.8,2470.582,13.29,0.023,350.1
2022-02-08T07:04:03,42.805,6.029,-0.021,0.012,-0.004,106.0,106.0,103.0,13.4,1505.2,325.6,-0.8,1.8,2470.643,13.28,0.024,299.7
2022-02-08T07:07:03,42.805,6.029,-0.002,0.014,0.023,105.0,105.0,104.0,13.4,1505.2,331.0,-0.7,1.8,2470.562,13.28,0.014,351.9
2022-02-08T07:10:03,42.805,6.029,0.004,0.022,0.022,105.0,104.0,103.0,13.3,1505.2,330.3,-0.8,1.8,2470.53,13.29,0.022,10.3
2022-02-08T07:13:03,42.805,6.029,0.001,0.011,-0.02,106.0,105.0,103.0,13.4,1505.2,326.4,-0.7,1.9,2470.598,13.29,0.011,5.2
2022-02-08T07:16:03,42.805,6.029,-0.012,0.012,-0.018,106.0,106.0,103.0,13.4,1505.2,326.6,-0.8,1.8,2470.568,13.29,0.016,315.0
2022-02-08T07:19:03,42.805,6.029,0.006,-0.001,-0.039,104.0,104.0,105.0,13.3,1505.2,328.9,-0.7,1.8,2470.592,13.29,0.006,99.5
2022-02-08T07:22:03,42.805,6.029,-0.001,0.024,-0.011,106.0,105.0,103.0,13.4,1505.2,327.8,-0.8,1.8,2470.641,13.29,0.024,357.6
2022-02-08T07:25:03,42.805,6.029,0.013,0.026,0.019,106.0,105.0,102.0,13.4,1505.2,324.5,-0.7,1.9,2470.587,13.29,0.029,26.6
2022-02-08T07:28:03,42.805,6.029,0.0,0.003,-0.011,106.0,105.0,104.0,13.3,1505.2,329.1,-0.8,1.8,2470.601,13.29,0.003,0.0
2022-02-08T07:31:03,42.805,6.029,-0.01,0.008,0.005,105.0,103.0,103.0,13.3,1505.2,328.3,-0.8,1.8,2470.581,13.29,0.012,308.7
2022-02-08T07:34:03,42.805,6.029,-0.007,0.03,-0.024,105.0,105.0,103.0,13.4,1505.2,327.2,-0.7,1.8,2470.606,13.29,0.03,346.9
2022-02-08T07:37:03,42.805,6.029,0.002,0.006,-0.007,104.0,105.0,104.0,13.4,1505.2,326.6,-0.8,1.8,2470.621,13.29,0.006,18.4
2022-02-08T07:40:03,42.805,6.029,0.0,0.02,-0.009,107.0,104.0,103.0,13.3,1505.2,326.7,-0.7,1.8,2470.555,13.29,0.02,0.0
2022-02-08T07:43:03,42.805,6.029,-0.028,0.018,0.011,106.0,105.0,104.0,13.4,1505.2,325.7,-0.8,1.8,2470.618,13.29,0.033,302.7
2022-02-08T07:46:03,42.805,6.029,0.004,0.024,-0.004,106.0,107.0,104.0,13.3,1505.2,323.1,-0.8,1.8,2470.613,13.29,0.024,9.5
2022-02-08T07:49:03,42.805,6.029,0.001,0.002,-0.005,107.0,106.0,103.0,13.3,1505.2,329.1,-0.7,1.8,2470.599,13.29,0.002,26.6
2022-02-08T07:52:03,42.805,6.029,-0.001,-0.004,0.008,106.0,105.0,103.0,13.3,1505.2,324.5,-0.7,1.8,2470.608,13.29,0.004,194.0
2022-02-08T07:55:03,42.805,6.029,0.008,0.02,0.005,108.0,105.0,105.0,13.3,1505.2,328.9,-0.7,1.8,2470.555,13.29,0.021,21.8
2022-02-08T07:58:03,42.805,6.029,-0.006,0.026,-0.01,108.0,105.0,103.0,13.3,1505.2,327.1,-0.7,1.8,2470.547,13.29,0.026,347.0
2022-02-08T08:04:03,42.805,6.029,0.008,0.011,-0.004,106.0,105.0,106.0,13.3,1505.2,331.3,-0.8,1.8,2470.626,13.28,0.013,36.0
2022-02-08T08:07:03,42.805,6.029,0.015,0.006,0.011,106.0,104.0,103.0,13.4,1505.2,330.7,-0.8,1.9,2470.61,13.29,0.016,68.2
2022-02-08T08:10:03,42.805,6.029,0.007,0.02,-0.018,105.0,108.0,104.0,13.3,1505.2,331.9,-0.8,1.8,2470.557,13.29,0.021,19.3
2022-02-08T08:13:03,42.805,6.029,-0.006,0.009,0.0,106.0,106.0,103.0,13.3,1505.2,327.1,-0.8,1.8,2470.573,13.29,0.01,326.3
2022-02-08T08:16:03,42.805,6.029,0.004,0.006,0.001,107.0,106.0,104.0,13.4,1505.2,326.0,-0.8,1.8,2470.59,13.29,0.007,33.7
2022-02-08T08:19:03,42.805,6.029,-0.005,0.007,-0.02,104.0,106.0,104.0,13.4,1505.2,325.2,-0.8,1.8,2470.591,13.29,0.008,324.5
2022-02-08T08:22:03,42.805,6.029,0.02,-0.001,-0.007,105.0,104.0,104.0,13.3,1505.2,329.3,-0.8,1.8,2470.593,13.29,0.02,92.9
2022-02-08T08:25:03,42.805,6.029,0.013,-0.01,0.009,105.0,105.0,102.0,13.4,1505.2,327.9,-0.8,1.8,2470.638,13.29,0.016,127.6
2022-02-08T08:28:03,42.805,6.029,-0.013,0.012,0.001,106.0,104.0,104.0,13.4,1505.2,329.6,-0.8,1.8,2470.576,13.29,0.017,312.7
2022-02-08T08:31:03,42.805,6.029,0.007,0.013,0.013,106.0,106.0,103.0,13.4,1505.2,330.1,-0.7,1.8,2470.622,13.29,0.014,28.3
2022-02-08T08:34:03,42.805,6.029,0.003,0.003,-0.02,105.0,104.0,103.0,13.4,1505.2,325.5,-0.8,1.8,2470.607,13.29,0.004,45.0
2022-02-08T08:37:03,42.805,6.029,0.014,0.021,-0.007,106.0,105.0,103.0,13.4,1505.2,331.0,-0.8,1.8,2470.606,13.29,0.025,33.7
2022-02-08T08:40:03,42.805,6.029,0.015,0.006,-0.017,106.0,104.0,104.0,13.3,1505.2,331.0,-0.7,1.8,2470.665,13.29,0.016,68.2
2022-02-08T08:43:03,42.805,6.029,0.006,-0.003,0.024,106.0,105.0,104.0,13.4,1505.2,327.3,-0.8,1.8,2470.649,13.29,0.006,116.6
2022-02-08T08:46:03,42.805,6.029,0.0,0.021,-0.002,105.0,104.0,103.0,13.4,1505.2,328.5,-0.8,1.8,2470.608,13.29,0.021,0.0
2022-02-08T08:49:03,42.805,6.029,0.0,0.016,-0.007,105.0,105.0,103.0,13.3,1505.2,326.1,-0.8,1.8,2470.591,13.29,0.016,0.0
2022-02-08T08:52:03,42.805,6.029,0.004,-0.018,-0.005,105.0,103.0,102.0,13.3,1505.2,326.4,-0.8,1.8,2470.58,13.29,0.018,167.5
2022-02-08T08:55:03,42.805,6.029,0.004,-0.003,-0.011,106.0,105.0,103.0,13.4,1505.2,331.2,-0.8,1.9,2470.57,13.29,0.005,126.9
2022-02-08T08:58:03,42.805,6.029,0.009,-0.004,-0.009,107.0,105.0,104.0,13.4,1505.2,325.5,-0.8,1.8,2470.565,13.29,0.009,114.0
2022-02-08T09:01:03,42.805,6.029,-0.009,0.018,0.0,105.0,106.0,103.0,13.4,1505.2,326.3,-0.8,1.8,2470.522,13.29,0.02,333.4
2022-02-08T09:04:03,42.805,6.029,0.002,0.0,-0.019,107.0,105.0,104.0,13.4,1505.2,325.3,-0.7,1.8,2470.565,13.29,0.002,90.0
2022-02-08T09:07:03,42.805,6.029,0.0,0.009,-0.01,105.0,104.0,104.0,13.3,1505.2,326.3,-0.8,1.8,2470.552,13.29,0.009,0.0
2022-02-08T09:10:03,42.805,6.029,-0.004,-0.002,0.008,106.0,105.0,103.0,13.4,1505.2,325.4,-0.8,1.8,2470.478,13.29,0.004,243.4
2022-02-08T09:13:03,42.805,6.029,0.013,0.002,-0.024,105.0,104.0,103.0,13.4,1505.2,328.0,-0.8,1.8,2470.456,13.29,0.013,81.3
2022-02-08T09:16:03,42.805,6.029,-0.014,-0.009,-0.028,105.0,106.0,103.0,13.4,1505.2,325.7,-0.8,1.8,2470.49,13.29,0.016,237.3
2022-02-08T09:19:03,42.805,6.029,0.006,0.008,0.008,107.0,105.0,108.0,13.3,1505.2,328.5,-0.8,1.8,2470.477,13.29,0.01,36.9
2022-02-08T09:22:03,42.805,6.029,0.008,0.01,0.0,106.0,105.0,103.0,13.4,1505.2,328.9,-0.8,1.8,2470.476,13.29,0.012,38.7
2022-02-08T09:25:03,42.805,6.029,-0.01,-0.023,-0.035,105.0,104.0,103.0,13.4,1505.2,329.2,-0.7,1.8,2470.471,13.29,0.025,203.5
2022-02-08T09:28:03,42.805,6.029,-0.022,-0.017,-0.049,107.0,106.0,102.0,13.4,1505.2,325.3,-0.8,1.8,2470.508,13.29,0.027,232.3
2022-02-08T09:31:03,42.805,6.029,-0.005,0.005,-0.015,105.0,105.0,103.0,13.3,1505.2,329.6,-0.8,1.9,2470.496,13.29,0.007,315.0
2022-02-08T09:34:03,42.805,6.029,-0.003,0.003,-0.056,102.0,105.0,103.0,13.3,1505.2,327.9,-0.8,1.8,2470.536,13.29,0.004,315.0
2022-02-08T09:37:03,42.805,6.029,0.005,-0.02,-0.044,106.0,106.0,104.0,13.3,1505.2,327.9,-0.8,1.8,2470.533,13.29,0.02,166.0
2022-02-08T09:40:03,42.805,6.029,-0.001,-0.004,-0.009,105.0,105.0,104.0,13.4,1505.2,328.3,-0.8,1.8,2470.543,13.29,0.004,194.0
2022-02-08T09:43:03,42.805,6.029,-0.002,-0.027,-0.025,105.0,105.0,103.0,13.3,1505.2,331.6,-0.7,1.8,2470.53,13.29,0.027,184.2
2022-02-08T09:46:03,42.805,6.029,-0.03,0.003,-0.007,105.0,106.0,104.0,13.4,1505.2,328.6,-0.7,1.8,2470.574,13.29,0.03,275.7
2022-02-08T09:49:03,42.805,6.029,-0.02,-0.016,-0.03,106.0,105.0,104.0,13.4,1505.2,327.2,-0.8,1.8,2470.515,13.29,0.025,231.3
2022-02-08T09:52:03,42.805,6.029,-0.002,-0.012,-0.017,106.0,107.0,103.0,13.4,1505.2,328.8,-0.8,1.8,2470.564,13.29,0.012,189.5
2022-02-08T09:55:03,42.805,6.029,-0.004,0.016,-0.032,106.0,104.0,104.0,13.4,1505.2,330.0,-0.7,1.8,2470.544,13.29,0.016,346.0